EW5758 Weather Reports


Display with metric or nautical units.
time (UTC)temp
F
wind
direction
speed
MPH
gust
MPH
rain 1hr
in
rain 24hr
in
rain mn
in
humidity
%
barometer
mb
20260510063534 57 120 5.0 0.0 0.00 0.00 0.00 83 1011.6
20260510063105 56 115 3.0 0.0 0.00 0.00 0.00 83 1009.8
20260510063033 56 137 3.0 0.0 0.00 0.00 0.00 83 1011.6
20260510062539 56 149 2.0 0.0 0.00 0.00 0.00 83 1011.6
20260510062056 56 138 2.0 0.0 0.00 0.00 0.00 84 1011.5
20260510061611 55 138 2.0 0.0 0.00 0.00 0.00 85 1009.6
20260510061536 56 138 2.0 0.0 0.00 0.00 0.00 85 1011.5
20260510061051 55 120 3.0 0.0 0.00 0.00 0.00 84 1011.5
20260510060529 55 126 5.0 0.0 0.00 0.00 0.00 84 1011.5
20260510060057 55 132 5.0 0.0 0.00 0.00 0.00 84 1011.4
20260510055534 54 126 5.0 0.0 0.00 0.00 0.00 84 1011.4
20260510055034 54 99 5.0 0.0 0.00 0.00 0.00 85 1011.4
20260510054543 54 97 5.0 0.0 0.00 0.00 0.00 86 1011.4
20260510054529 53 111 5.0 0.0 0.00 0.00 0.00 86 1009.6
20260510054023 54 130 4.0 0.0 0.00 0.00 0.00 86 1011.4
20260510053556 53 138 3.0 0.0 0.00 0.00 0.00 87 1011.5
20260510053107 53 159 3.0 0.0 0.00 0.00 0.00 86 1009.6
20260510053041 53 140 3.0 0.0 0.00 0.00 0.00 86 1011.4
20260510052542 53 90 3.0 0.0 0.00 0.00 0.00 86 1011.4
20260510052034 53 84 3.0 0.0 0.00 0.00 0.00 87 1011.4
20260510051611 52 84 4.0 0.0 0.00 0.00 0.00 87 1009.6
20260510051534 52 84 4.0 0.0 0.00 0.00 0.00 87 1011.4
20260510051020 52 97 5.0 0.0 0.00 0.00 0.00 87 1011.4
20260510050539 52 100 5.0 0.0 0.00 0.00 0.00 87 1011.4
20260510050118 51 101 5.0 0.0 0.00 0.00 0.00 87 1009.4
20260510050046 52 99 5.0 0.0 0.00 0.00 0.00 87 1011.3
20260510045544 52 100 5.0 0.0 0.00 0.00 0.00 87 1011.2
20260510045029 51 93 4.0 0.0 0.00 0.00 0.00 87 1011.2
20260510044555 51 97 4.0 0.0 0.00 0.00 0.00 87 1011.3
20260510044045 51 97 4.0 0.0 0.00 0.00 0.00 87 1011.3
20260510043600 51 85 4.0 0.0 0.00 0.00 0.00 87 1011.3
20260510043052 51 61 3.0 0.0 0.00 0.00 0.00 87 1009.4
20260510043034 51 61 3.0 0.0 0.00 0.00 0.00 87 1011.3
20260510042528 51 61 3.0 0.0 0.00 0.00 0.00 87 1011.3
20260510042049 51 61 3.0 0.0 0.00 0.00 0.00 87 1011.3
20260510041542 51 72 3.0 0.0 0.00 0.00 0.00 87 1009.4
20260510041519 51 72 3.0 0.0 0.00 0.00 0.00 87 1011.2
20260510041045 51 80 4.0 0.0 0.00 0.00 0.00 87 1011.3
20260510040555 51 82 4.0 0.0 0.00 0.00 0.00 87 1011.3
20260510040118 51 56 3.0 0.0 0.00 0.00 0.00 86 1009.4
20260510040031 51 56 3.0 0.0 0.00 0.00 0.00 86 1011.3
20260510035531 51 56 3.0 0.0 0.00 0.00 0.00 86 1011.3
20260510035039 51 56 4.0 0.0 0.00 0.00 0.00 86 1011.3
20260510034538 52 56 6.0 0.0 0.00 0.00 0.00 86 1011.4
20260510034503 51 57 5.0 0.0 0.00 0.00 0.00 86 1009.6
20260510034033 52 65 4.0 0.0 0.00 0.00 0.00 86 1011.4
20260510033529 52 56 3.0 0.0 0.00 0.00 0.00 86 1011.4
20260510033109 51 61 3.0 0.0 0.00 0.00 0.00 86 1009.5
20260510033033 52 61 3.0 0.0 0.00 0.00 0.00 86 1011.4
20260510032539 52 55 2.0 0.0 0.00 0.00 0.00 86 1011.4
20260510032041 52 47 1.0 0.0 0.00 0.00 0.00 86 1011.4
20260510031553 51 59 4.0 0.0 0.00 0.00 0.00 86 1009.6
20260510031535 52 59 4.0 0.0 0.00 0.00 0.00 86 1011.5
20260510031042 52 58 6.0 0.0 0.00 0.00 0.00 86 1011.6
20260510030535 52 86 5.0 0.0 0.00 0.00 0.00 86 1011.6
20260510030041 52 59 4.0 0.0 0.00 0.00 0.00 85 1011.5
20260510030028 52 59 4.0 0.0 0.00 0.00 0.00 85 1009.7
20260510025550 52 61 3.0 0.0 0.00 0.00 0.00 85 1011.5
20260510025057 52 59 2.0 0.0 0.00 0.00 0.00 85 1011.5
20260510024539 52 61 1.0 0.0 0.00 0.00 0.00 85 1011.4
20260510024501 52 61 1.0 0.0 0.00 0.00 0.00 85 1009.5
20260510024046 52 61 2.0 0.0 0.00 0.00 0.00 85 1011.4
20260510023540 52 61 4.0 0.0 0.00 0.00 0.00 85 1011.5
20260510023041 52 60 4.0 0.0 0.00 0.00 0.00 85 1011.5
20260510023014 52 59 4.0 0.0 0.00 0.00 0.00 85 1009.7
20260510022538 53 58 5.0 0.0 0.00 0.00 0.00 85 1011.6
20260510022034 53 63 5.0 0.0 0.00 0.00 0.00 84 1011.6
20260510021700 52 68 5.0 0.0 0.00 0.00 0.00 84 1009.7
20260510021532 53 59 5.0 0.0 0.00 0.00 0.00 84 1011.5
20260510021052 53 72 6.0 0.0 0.00 0.00 0.00 83 1011.6
20260510020524 53 70 4.0 0.0 0.00 0.00 0.00 83 1011.6
20260510015546 53 82 3.0 0.0 0.00 0.00 0.00 83 1011.6
20260510015101 54 86 2.0 0.0 0.00 0.00 0.00 82 1011.7
20260510014620 53 55 1.0 0.0 0.00 0.00 0.00 82 1009.8
20260510014538 54 70 2.0 0.0 0.00 0.00 0.00 82 1011.6
20260510014031 54 70 3.0 0.0 0.00 0.00 0.00 82 1011.7
20260510013538 54 67 4.0 0.0 0.00 0.00 0.00 82 1011.7
20260510013033 54 62 4.0 0.0 0.00 0.00 0.00 82 1011.7
20260510012529 54 64 4.0 0.0 0.00 0.00 0.00 81 1011.7
20260510012039 55 59 4.0 0.0 0.00 0.00 0.00 82 1011.6
20260510011605 55 56 5.0 0.0 0.00 0.00 0.00 82 1011.7
20260510011517 54 56 5.0 0.0 0.00 0.00 0.00 82 1009.9
20260510011029 55 68 4.0 0.0 0.00 0.00 0.00 81 1011.7
20260510010600 55 61 4.0 0.0 0.00 0.00 0.00 82 1011.8
20260510010127 54 72 5.0 0.0 0.00 0.00 0.00 82 1009.9
20260510010103 55 72 5.0 0.0 0.00 0.00 0.00 82 1011.8
20260510005537 55 84 5.0 0.0 0.00 0.00 0.00 82 1011.9
20260510005034 55 109 5.0 0.0 0.00 0.00 0.00 82 1011.9
20260510004607 54 90 4.0 0.0 0.00 0.00 0.00 82 1010.0
20260510004536 55 81 3.0 0.0 0.00 0.00 0.00 82 1011.8
20260510004040 55 57 1.0 0.0 0.00 0.00 0.00 83 1011.8
20260510003529 55 55 0.0 0.0 0.00 0.00 0.00 82 1011.8
20260510003054 55 55 1.0 0.0 0.00 0.00 0.00 82 1010.0
20260510003035 55 55 1.0 0.0 0.00 0.00 0.00 82 1011.9
20260510002554 55 55 2.0 0.0 0.00 0.00 0.00 82 1012.0
20260510002051 55 57 2.0 0.0 0.00 0.00 0.00 82 1012.1
20260510001549 55 59 1.0 0.0 0.00 0.00 0.00 83 1012.2
20260510001510 54 49 1.0 0.0 0.00 0.00 0.00 83 1010.4
20260510001030 54 56 1.0 0.0 0.00 0.00 0.00 83 1012.2
20260510000535 54 47 1.0 0.0 0.00 0.00 0.00 83 1012.3
20260510000117 54 54 3.0 0.0 0.00 0.00 0.00 84 1010.5
20260510000032 54 61 3.0 0.0 0.00 0.00 0.00 84 1012.4
20260509235556 54 61 5.0 0.0 0.00 0.00 0.00 84 1012.5
20260509235036 54 57 5.0 0.0 0.00 0.00 0.00 84 1012.5
20260509234605 53 57 3.0 0.0 0.00 0.00 0.00 84 1010.7
20260509234546 54 60 3.0 0.0 0.00 0.00 0.00 84 1012.5
20260509234021 54 60 2.0 0.0 0.00 0.00 0.00 84 1012.5
20260509233539 54 53 4.0 0.0 0.00 0.00 0.00 84 1012.6
20260509233116 53 55 4.0 0.0 0.00 0.00 0.00 83 1010.8
20260509233037 54 55 4.0 0.0 0.00 0.00 0.00 84 1012.6
20260509232534 54 59 3.0 0.0 0.00 0.00 0.00 83 1012.7
20260509232028 54 57 3.0 0.0 0.00 0.00 0.00 83 1012.7
20260509231633 53 70 3.0 0.0 0.00 0.00 0.00 82 1010.9
20260509231555 54 70 3.0 0.0 0.00 0.00 0.00 82 1012.7
20260509231032 54 70 4.0 0.0 0.00 0.00 0.00 82 1012.7
20260509230529 54 70 4.0 0.0 0.00 0.00 0.00 81 1012.8
20260509230114 54 70 3.0 0.0 0.00 0.00 0.00 81 1010.9
20260509230023 55 70 3.0 0.0 0.00 0.00 0.00 81 1012.8
20260509225549 55 70 4.0 0.0 0.00 0.00 0.00 81 1012.7
20260509225031 55 75 4.0 0.0 0.00 0.00 0.00 80 1012.8
20260509224523 55 91 3.0 0.0 0.00 0.00 0.00 80 1012.7
20260509224510 54 91 3.0 0.0 0.00 0.00 0.00 80 1010.9
20260509224046 55 68 1.0 0.0 0.00 0.00 0.00 80 1012.7
20260509223544 55 61 1.0 0.0 0.00 0.00 0.00 80 1012.7
20260509223109 55 23 1.0 0.0 0.00 0.00 0.00 80 1010.9
20260509223048 55 23 1.0 0.0 0.00 0.00 0.00 80 1012.8
20260509222533 55 23 1.0 0.0 0.00 0.00 0.00 80 1012.7
20260509222036 56 57 2.0 0.0 0.00 0.00 0.00 80 1012.7
20260509221621 55 47 2.0 0.0 0.00 0.00 0.00 80 1010.8
20260509221539 56 55 2.0 0.0 0.00 0.00 0.00 79 1012.6
20260509221034 56 30 3.0 0.0 0.00 0.00 0.00 79 1012.6
20260509220536 56 61 2.0 0.0 0.00 0.00 0.00 79 1012.6
20260509220108 56 55 1.0 0.0 0.00 0.00 0.00 78 1012.6
20260509220026 56 53 1.0 0.0 0.00 0.00 0.00 78 1010.7
20260509215545 57 44 2.0 0.0 0.00 0.00 0.00 78 1012.5
20260509215056 57 50 2.0 0.0 0.00 0.00 0.00 78 1012.5
20260509214537 57 50 3.0 0.0 0.00 0.00 0.00 77 1012.6
20260509214105 57 352 3.0 0.0 0.00 0.00 0.00 76 1012.6
20260509213534 57 347 2.0 0.0 0.00 0.00 0.00 76 1012.7
20260509213145 57 357 2.0 0.0 0.00 0.00 0.00 75 1011.0
20260509213042 57 357 1.0 0.0 0.00 0.00 0.00 75 1012.8
20260509212548 57 357 1.0 0.0 0.00 0.00 0.00 75 1012.9
20260509212025 57 357 1.0 0.0 0.00 0.00 0.00 75 1013.0
20260509211608 57 357 1.0 0.0 0.00 0.00 0.00 74 1011.1
20260509211535 58 357 1.0 0.0 0.00 0.00 0.00 74 1013.0
20260509211033 58 357 1.0 0.0 0.00 0.00 0.00 74 1013.0
20260509210556 58 337 1.0 0.0 0.00 0.00 0.00 74 1013.1
20260509210048 58 8 0.0 0.0 0.00 0.00 0.00 73 1013.1
20260509210020 57 8 0.0 0.0 0.00 0.00 0.00 73 1011.3
20260509205539 58 8 0.0 0.0 0.00 0.00 0.00 72 1013.1
20260509205034 58 8 1.0 0.0 0.00 0.00 0.00 72 1013.1
20260509204650 58 11 1.0 0.0 0.00 0.00 0.00 71 1011.3
20260509204543 58 11 1.0 0.0 0.00 0.00 0.00 72 1013.1
20260509204039 58 35 1.0 0.0 0.00 0.00 0.00 71 1013.1
20260509203529 59 45 2.0 0.0 0.00 0.00 0.00 71 1013.1
20260509203053 59 343 1.0 0.0 0.00 0.00 0.00 71 1013.1
20260509203010 58 343 1.0 0.0 0.00 0.00 0.00 71 1011.2
20260509202529 59 18 1.0 0.0 0.00 0.00 0.00 70 1013.0
20260509202038 59 9 1.0 0.0 0.00 0.00 0.00 70 1013.0
20260509201533 59 330 1.0 0.0 0.00 0.00 0.00 70 1011.2
20260509201517 59 330 1.0 0.0 0.00 0.00 0.00 70 1013.1
20260509201050 59 1 1.0 0.0 0.00 0.00 0.00 70 1013.1
20260509200543 60 343 1.0 0.0 0.00 0.00 0.00 70 1013.0
20260509200038 60 347 1.0 0.0 0.00 0.00 0.00 69 1013.0
20260509195541 60 7 1.0 0.0 0.00 0.00 0.00 68 1013.0
20260509195048 60 18 1.0 0.0 0.00 0.00 0.00 67 1013.0
20260509194542 60 9 2.0 0.0 0.00 0.00 0.00 67 1012.8
20260509194503 60 9 2.0 0.0 0.00 0.00 0.00 67 1011.0
20260509194037 60 357 3.0 0.0 0.00 0.00 0.00 66 1012.8
20260509193529 61 6 3.0 0.0 0.00 0.00 0.00 65 1012.7
20260509193113 61 352 4.0 0.0 0.00 0.00 0.00 64 1010.8
20260509193045 61 357 4.0 0.0 0.00 0.00 0.00 64 1012.7
20260509192542 61 352 4.0 0.0 0.00 0.00 0.00 63 1012.7
20260509192037 62 5 4.0 0.0 0.00 0.00 0.00 63 1012.7
20260509191612 62 8 4.0 0.0 0.00 0.00 0.00 62 1010.9
20260509191538 62 357 4.0 0.0 0.00 0.00 0.00 61 1012.7
20260509191033 63 10 3.0 0.0 0.00 0.00 0.00 61 1012.7
20260509190537 63 357 3.0 0.0 0.00 0.00 0.00 60 1012.7
20260509190058 63 20 3.0 0.0 0.00 0.00 0.00 59 1010.9
20260509190019 64 22 3.0 0.0 0.00 0.00 0.00 58 1012.7
20260509185536 64 18 3.0 0.0 0.00 0.00 0.00 57 1012.7
20260509185038 64 14 4.0 0.0 0.00 0.00 0.00 56 1012.9
20260509184608 64 319 4.0 0.0 0.00 0.00 0.00 54 1011.0
20260509184536 65 343 4.0 0.0 0.00 0.00 0.00 54 1012.8
20260509184039 65 352 4.0 0.0 0.00 0.00 0.00 53 1012.9
20260509183517 66 347 4.0 0.0 0.00 0.00 0.00 53 1013.0
20260509183035 65 352 4.0 0.0 0.00 0.00 0.00 51 1011.1
20260509183019 66 347 4.0 0.0 0.00 0.00 0.00 51 1013.0
20260509182533 66 329 4.0 0.0 0.00 0.00 0.00 50 1012.9
20260509182042 67 347 4.0 0.0 0.00 0.00 0.00 50 1012.9
20260509181538 67 329 4.0 0.0 0.00 0.00 0.00 49 1013.0
20260509181506 67 352 4.0 0.0 0.00 0.00 0.00 49 1011.1
20260509181026 68 317 2.0 0.0 0.00 0.00 0.00 51 1013.0
20260509180533 68 332 2.0 0.0 0.00 0.00 0.00 53 1013.0
20260509180156 68 317 2.0 0.0 0.00 0.00 0.00 56 1011.2
20260509180018 68 315 2.0 0.0 0.00 0.00 0.00 56 1013.0
20260509175529 68 307 3.0 0.0 0.00 0.00 0.00 49 1013.0
20260509175026 68 307 3.0 0.0 0.00 0.00 0.00 48 1012.9
20260509174621 68 296 4.0 0.0 0.00 0.00 0.00 47 1011.1
20260509174519 69 308 4.0 0.0 0.00 0.00 0.00 47 1013.0
20260509174017 69 291 4.0 0.0 0.00 0.00 0.00 46 1013.0
20260509173523 69 326 4.0 0.0 0.00 0.00 0.00 46 1013.0
20260509173132 69 317 5.0 0.0 0.00 0.00 0.00 43 1011.1
20260509173035 69 301 5.0 0.0 0.00 0.00 0.00 45 1013.0
20260509172532 69 303 5.0 0.0 0.00 0.00 0.00 44 1012.9
20260509172028 69 319 6.0 0.0 0.00 0.00 0.00 45 1013.0
20260509171550 70 317 7.0 0.0 0.00 0.00 0.00 44 1012.9
20260509171521 69 315 7.0 0.0 0.00 0.00 0.00 44 1011.1
20260509171021 70 293 6.0 0.0 0.00 0.00 0.00 45 1012.9
20260509170537 70 308 7.0 0.0 0.00 0.00 0.00 43 1012.9
20260509170113 70 309 7.0 0.0 0.00 0.00 0.00 43 1011.1
20260509170044 71 280 7.0 0.0 0.00 0.00 0.00 43 1012.9
20260509165545 71 274 6.0 0.0 0.00 0.00 0.00 44 1012.8
20260509165037 71 285 6.0 0.0 0.00 0.00 0.00 43 1012.8
20260509164625 71 301 6.0 0.0 0.00 0.00 0.00 44 1011.0
20260509164542 71 295 6.0 0.0 0.00 0.00 0.00 44 1012.9
20260509164038 71 312 6.0 0.0 0.00 0.00 0.00 45 1012.9
20260509163533 71 294 7.0 0.0 0.00 0.00 0.00 43 1013.0
20260509163127 70 288 7.0 0.0 0.00 0.00 0.00 44 1011.1
20260509163037 71 307 7.0 0.0 0.00 0.00 0.00 42 1013.0
20260509162530 71 286 7.0 0.0 0.00 0.00 0.00 44 1013.1
20260509162042 71 295 7.0 0.0 0.00 0.00 0.00 45 1013.2
20260509161613 71 284 7.0 0.0 0.00 0.00 0.00 42 1011.4
20260509161516 72 303 7.0 0.0 0.00 0.00 0.00 44 1013.2
20260509161043 72 320 7.0 0.0 0.00 0.00 0.00 44 1013.2
20260509160538 71 296 8.0 0.0 0.00 0.00 0.00 44 1013.3
20260509160104 72 301 8.0 0.0 0.00 0.00 0.00 42 1013.2
20260509160012 72 273 8.0 0.0 0.00 0.00 0.00 43 1011.4
20260509155534 72 18 7.0 0.0 0.00 0.00 0.00 43 1013.3
20260509155038 72 254 7.0 0.0 0.00 0.00 0.00 43 1013.4
20260509154618 72 301 6.0 0.0 0.00 0.00 0.00 44 1011.6
20260509154533 73 326 6.0 0.0 0.00 0.00 0.00 45 1013.4
20260509154043 73 316 6.0 0.0 0.00 0.00 0.00 46 1013.5
20260509153534 73 303 7.0 0.0 0.00 0.00 0.00 45 1013.4
20260509153106 73 320 6.0 0.0 0.00 0.00 0.00 46 1011.5
20260509153019 73 303 6.0 0.0 0.00 0.00 0.00 47 1013.4
20260509152552 73 308 5.0 0.0 0.00 0.00 0.00 45 1013.3
20260509152029 73 287 6.0 0.0 0.00 0.00 0.00 48 1013.4
20260509151611 72 259 6.0 0.0 0.00 0.00 0.00 49 1011.5
20260509151538 73 290 7.0 0.0 0.00 0.00 0.00 47 1013.3
20260509151033 73 324 7.0 0.0 0.00 0.00 0.00 46 1013.3
20260509150538 73 339 7.0 0.0 0.00 0.00 0.00 47 1013.4
20260509150106 72 293 7.0 0.0 0.00 0.00 0.00 46 1011.6
20260509150034 72 298 7.0 0.0 0.00 0.00 0.00 44 1013.4
20260509145528 72 323 8.0 0.0 0.00 0.00 0.00 48 1013.5
20260509145039 72 242 8.0 0.0 0.00 0.00 0.00 46 1013.4
20260509144534 72 294 8.0 0.0 0.00 0.00 0.00 46 1013.5
20260509144503 72 310 8.0 0.0 0.00 0.00 0.00 45 1011.7
20260509144023 72 282 8.0 0.0 0.00 0.00 0.00 45 1013.6
20260509143550 72 315 7.0 0.0 0.00 0.00 0.00 47 1013.6
20260509143103 72 317 7.0 0.0 0.00 0.00 0.00 45 1011.8
20260509143027 72 311 7.0 0.0 0.00 0.00 0.00 45 1013.7
20260509142538 72 296 7.0 0.0 0.00 0.00 0.00 49 1013.6
20260509142038 72 301 8.0 0.0 0.00 0.00 0.00 44 1013.7
20260509141635 71 275 8.0 0.0 0.00 0.00 0.00 46 1011.9
20260509141604 72 259 8.0 0.0 0.00 0.00 0.00 46 1013.8
20260509141038 72 290 7.0 0.0 0.00 0.00 0.00 47 1013.9
20260509140606 73 309 6.0 0.0 0.00 0.00 0.00 45 1013.8
20260509140104 74 325 7.0 0.0 0.00 0.00 0.00 45 1013.9
20260509140019 73 271 7.0 0.0 0.00 0.00 0.00 45 1012.1
20260509135600 73 274 7.0 0.0 0.00 0.00 0.00 46 1013.9
20260509135026 73 296 7.0 0.0 0.00 0.00 0.00 44 1014.0
20260509134608 72 309 7.0 0.0 0.00 0.00 0.00 46 1012.2
20260509134537 73 307 7.0 0.0 0.00 0.00 0.00 46 1014.0
20260509134018 73 327 7.0 0.0 0.00 0.00 0.00 49 1014.1
20260509133533 73 326 8.0 0.0 0.00 0.00 0.00 46 1014.1
20260509133059 73 265 7.0 0.0 0.00 0.00 0.00 47 1014.2
20260509132559 73 292 8.0 0.0 0.00 0.00 0.00 49 1014.3
20260509132034 73 307 8.0 0.0 0.00 0.00 0.00 49 1014.4
20260509131618 72 293 8.0 0.0 0.00 0.00 0.00 51 1012.6
20260509131538 73 305 8.0 0.0 0.00 0.00 0.00 51 1014.5
20260509131033 73 330 7.0 0.0 0.00 0.00 0.00 49 1014.5
20260509130527 73 258 8.0 0.0 0.00 0.00 0.00 52 1014.6
20260509130052 72 3 8.0 0.0 0.00 0.00 0.00 52 1012.7
20260509130034 72 270 8.0 0.0 0.00 0.00 0.00 52 1014.6
20260509125600 72 286 8.0 0.0 0.00 0.00 0.00 53 1014.6
20260509125043 72 282 8.0 0.0 0.00 0.00 0.00 54 1014.6
20260509124626 72 347 8.0 0.0 0.00 0.00 0.00 57 1012.9
20260509124544 72 315 8.0 0.0 0.00 0.00 0.00 56 1014.7
20260509124028 72 303 8.0 0.0 0.00 0.00 0.00 56 1014.7
20260509123523 72 284 7.0 0.0 0.00 0.00 0.00 55 1014.8
20260509123054 72 292 7.0 0.0 0.00 0.00 0.00 55 1014.9
20260509123017 71 316 7.0 0.0 0.00 0.00 0.00 55 1013.0
20260509122603 72 258 7.0 0.0 0.00 0.00 0.00 53 1014.9
20260509122104 72 317 7.0 0.0 0.00 0.00 0.00 56 1015.1
20260509121619 71 290 7.0 0.0 0.00 0.00 0.00 58 1013.3
20260509121519 72 310 7.0 0.0 0.00 0.00 0.00 57 1015.2
20260509121052 71 266 7.0 0.0 0.00 0.00 0.00 57 1015.2
20260509120534 71 278 8.0 0.0 0.00 0.00 0.00 57 1015.2
20260509120054 71 312 8.0 0.0 0.00 0.00 0.00 58 1015.3
20260509115527 71 320 7.0 0.0 0.00 0.00 0.00 59 1015.3
20260509115028 71 309 6.0 0.0 0.00 0.00 0.00 58 1015.4
20260509114604 70 266 7.0 0.0 0.00 0.00 0.00 60 1013.6
20260509114534 70 274 7.0 0.0 0.00 0.00 0.00 59 1015.5
20260509114035 70 274 7.0 0.0 0.00 0.00 0.00 61 1015.5
20260509113535 70 280 7.0 0.0 0.00 0.00 0.00 60 1015.6
20260509113056 70 278 7.0 0.0 0.00 0.00 0.00 62 1013.9
20260509113022 70 338 7.0 0.0 0.00 0.00 0.00 61 1015.7
20260509112554 70 332 7.0 0.0 0.00 0.00 0.00 60 1015.8
20260509112019 70 230 8.0 0.0 0.00 0.00 0.00 61 1015.9
20260509111557 69 311 8.0 0.0 0.00 0.00 0.00 61 1014.1
20260509111540 69 321 7.0 0.0 0.00 0.00 0.00 61 1015.9
20260509111023 69 260 7.0 0.0 0.00 0.00 0.00 62 1016.0
20260509110538 69 236 7.0 0.0 0.00 0.00 0.00 62 1016.1
20260509110031 69 315 7.0 0.0 0.00 0.00 0.00 61 1016.2
20260509110008 68 277 7.0 0.0 0.00 0.00 0.00 61 1014.4
20260509105541 69 296 8.0 0.0 0.00 0.00 0.00 61 1016.2
20260509105026 69 295 7.0 0.0 0.00 0.00 0.00 62 1016.4
20260509104552 68 296 6.0 0.0 0.00 0.00 0.00 63 1014.6
20260509104535 69 233 6.0 0.0 0.00 0.00 0.00 63 1016.4
20260509104059 68 262 7.0 0.0 0.00 0.00 0.00 66 1016.5
20260509103523 68 311 6.0 0.0 0.00 0.00 0.00 64 1016.6
20260509103148 67 265 6.0 0.0 0.00 0.00 0.00 62 1014.8
20260509103042 68 265 6.0 0.0 0.00 0.00 0.00 62 1016.7
20260509102542 68 298 7.0 0.0 0.00 0.00 0.00 65 1016.7
20260509102042 68 301 7.0 0.0 0.00 0.00 0.00 67 1016.8
20260509101606 67 302 6.0 0.0 0.00 0.00 0.00 65 1014.9
20260509101540 68 314 6.0 0.0 0.00 0.00 0.00 65 1016.7
20260509101024 68 294 5.0 0.0 0.00 0.00 0.00 67 1016.9
20260509100532 67 327 5.0 0.0 0.00 0.00 0.00 70 1016.9
20260509100049 67 325 6.0 0.0 0.00 0.00 0.00 68 1016.9
20260509100019 66 274 6.0 0.0 0.00 0.00 0.00 68 1015.1
20260509095614 67 265 5.0 0.0 0.00 0.00 0.00 68 1017.0
20260509095049 66 316 5.0 0.0 0.00 0.00 0.00 71 1017.1
20260509094540 66 267 4.0 0.0 0.00 0.00 0.00 73 1017.1
20260509094023 66 249 4.0 0.0 0.00 0.00 0.00 71 1017.2
20260509093537 65 21 4.0 0.0 0.00 0.00 0.00 73 1017.2
20260509093111 65 260 4.0 0.0 0.00 0.00 0.00 73 1015.5
20260509093038 65 264 4.0 0.0 0.00 0.00 0.00 72 1017.3
20260509092533 65 325 3.0 0.0 0.00 0.00 0.00 76 1017.4
20260509092027 64 261 3.0 0.0 0.00 0.00 0.00 76 1017.4
20260509091533 64 233 3.0 0.0 0.00 0.00 0.00 75 1017.3
20260509091503 63 309 3.0 0.0 0.00 0.00 0.00 75 1015.5
20260509091024 64 251 3.0 0.0 0.00 0.00 0.00 75 1017.4
20260509090529 63 290 2.0 0.0 0.00 0.00 0.00 75 1017.5
20260509090132 62 234 3.0 0.0 0.00 0.00 0.00 76 1015.8
20260509090019 63 206 3.0 0.0 0.00 0.00 0.00 75 1017.6
20260509085523 63 282 4.0 0.0 0.00 0.00 0.00 76 1017.6
20260509085029 62 297 4.0 0.0 0.00 0.00 0.00 77 1017.5
20260509084557 61 296 4.0 0.0 0.00 0.00 0.00 79 1015.7
20260509084516 61 286 4.0 0.0 0.00 0.00 0.00 80 1017.5
20260509084036 61 259 4.0 0.0 0.00 0.00 0.00 81 1017.6
20260509083541 60 302 4.0 0.0 0.00 0.00 0.00 81 1016.8
20260509083104 59 211 4.0 0.0 0.00 0.00 0.00 81 1015.8
20260509083016 60 232 4.0 0.0 0.00 0.00 0.00 81 1016.8
20260509082541 60 286 4.0 0.0 0.00 0.00 0.00 81 1016.8
20260509082034 59 284 3.0 0.0 0.00 0.00 0.00 83 1016.8
20260509081613 59 232 4.0 0.0 0.00 0.00 0.00 82 1016.0
20260509081538 59 300 4.0 0.0 0.00 0.00 0.00 82 1016.9
20260509081021 58 272 4.0 0.0 0.00 0.00 0.00 83 1016.8
20260509080548 58 308 4.0 0.0 0.00 0.00 0.00 84 1016.8
20260509080117 57 328 4.0 0.0 0.00 0.00 0.00 86 1016.0
20260509080029 57 284 4.0 0.0 0.00 0.00 0.00 87 1016.8
20260509075542 56 302 3.0 0.0 0.00 0.00 0.00 88 1017.0
20260509075027 56 310 2.0 0.0 0.00 0.00 0.00 88 1017.0
20260509074528 55 304 2.0 0.0 0.00 0.00 0.00 88 1017.0
20260509074507 55 304 2.0 0.0 0.00 0.00 0.00 88 1016.2
20260509074101 55 288 3.0 0.0 0.00 0.00 0.00 89 1017.0